Create Custom Reports and Graphics: Custom Report

Belmont 8000'

Squaw Valley

10/27/20 7:30 PM (-07:00)
Updated Every 15 Minutes
Temp 41.8 °F   10.9
RH 39 %   17
Dew Pt 19.0 °F   22.1
Wet Bulb 32.5 °F   10.9
Wind Dir ENE | 69 °
Wind Spd 6.9 mph   4.1
Wind Gust 13.1 mph   8.2
WindChill 38.2 °F   16.1
Daily Min Temp 28.7 °F   12.2
Daily Max Temp 52.1 °F   11.5
Latest Rain 0.00 In
Daily Rain 0.00 In

Last 24 Hours

Squaw-Belmont 8000'

Hourly Data | America/Los_Angeles
as of 10/27/20 7:33 PM PDT
Date & Time Temp (°F) RH (%) Dew Pt (°F) Wet Bulb (°F) Wind Dir (°) Wind Spd (mph) Wind Gust (mph) WindChill (°F) Latest Rain (In) Daily Min Temp (°F) Daily Max Temp (°F) Daily Rain (In)
10/27/20 - 1900 43.0 36 17.9 32.8 ENE | 69 5.8 16.4 40.6 0.00 28.7 52.1 0.00
10/27/20 - 1800 45.2 29 15.1 33.3 ENE | 69 5.9 17.0 43.0 0.00 28.7 52.1 0.00
10/27/20 - 1700 46.8 26 13.8 33.8 E | 79 3.4 10.5 46.4 0.00 28.7 52.1 0.00
10/27/20 - 1600 48.3 26 15.2 34.9 ENE | 71 5.2 16.8 46.4 0.00 28.7 52.1 0.00
10/27/20 - 1500 50.0 28 18.3 36.6 ENE | 78 5.6 18.7 48.4 0.00 28.7 52.1 0.00
10/27/20 - 1400 50.8 37 25.4 39.0 E | 93 5.3 12.9 47.2 0.00 28.7 51.2 0.00
10/27/20 - 1300 46.6 41 24.3 36.6 ENE | 70 6.2 16.9 42.5 0.00 28.7 46.9 0.00
10/27/20 - 1200 45.3 42 23.6 35.7 ENE | 60 7.1 18.4 39.0 0.00 28.7 45.8 0.00
10/27/20 - 1100 41.7 44 21.4 33.2 ENE | 77 7.7 16.2 35.3 0.00 28.7 41.8 0.00
10/27/20 - 1000 39.4 47 20.8 31.8 ENE | 78 7.4 17.4 31.8 0.00 28.7 39.4 0.00
10/27/20 - 0900 34.9 53 19.7 28.9 ENE | 69 6.1 12.6 28.7 0.00 28.7 35.0 0.00
10/27/20 - 0800 32.8 54 17.8 27.1 ENE | 71 5.9 15.4 26.8 0.00 28.7 33.0 0.00
10/27/20 - 0700 31.4 46 13.1 25.0 ENE | 63 10.5 18.1 22.7 0.00 28.7 31.7 0.00
10/27/20 - 0600 30.5 38 8.2 23.3 ENE | 61 11.0 19.1 21.0 0.00 28.7 31.5 0.00
10/27/20 - 0500 29.9 31 3.0 21.9 ENE | 61 12.4 21.2 19.8 0.00 28.7 31.5 0.00
10/27/20 - 0400 30.1 30 2.2 21.9 ENE | 62 11.0 22.2 20.1 0.00 28.7 31.5 0.00
10/27/20 - 0300 29.6 26 -1.0 21.1 ENE | 66 14.3 22.2 20.3 0.00 29.5 31.5 0.00
10/27/20 - 0200 31.4 26 0.3 22.4 ENE | 62 8.5 15.6 23.7 0.00 30.2 31.5 0.00
10/27/20 - 0100 30.7 24 -1.9 21.7 ENE | 57 7.6 15.1 23.7 0.00 30.2 31.0 0.00
10/27/20 - 0000 31.0 20 -5.3 21.3 NE | 55 8.7 18.8 22.9 0.00 16.5 40.6 0.00
10/26/20 - 2300 30.2 21 -4.9 20.9 ENE | 60 8.2 18.0 22.8 0.00 16.5 40.6 0.00
10/26/20 - 2200 29.9 20 -6.6 20.5 NE | 56 10.0 18.7 21.6 0.00 16.5 40.6 0.00
10/26/20 - 2100 29.9 21 -5.7 20.6 ENE | 57 8.5 17.5 22.6 0.00 16.5 40.6 0.00
10/26/20 - 2000 30.3 20 -6.0 20.8 ENE | 58 10.2 21.3 22.4 0.00 16.5 40.6 0.00
10/26/20 - 1900 31.2 22 -2.9 21.8 NE | 53 7.0 13.8 25.3 0.00 16.5 40.6 0.00
Max 50.8 54 25.4 39.0 - 14.3 22.2 48.4 0.00 30.2 52.1 0.00
Avg 36.8 32 9.0 27.5 - 8.0 17.2 30.6 0.00 - - -
Min 29.6 20 -6.6 20.5 - 3.4 10.5 19.8 0.00 16.5 31.0 0.00
Total - - - - - - - - 0.00 - - -

Last 30 Days

Squaw-Belmont 8000'

Daily Data | America/Los_Angeles
as of 10/27/20 7:33 PM PDT
Date Daily Max Temp (°F) Time of Max Temp Daily Min Temp (°F) Time of Min Temp Daily Rain (In) Seasonal Rainfall (In) Wind Spd (mph) Daily Max Wind (mph) Time of Max Wind Max Wind Dir (°) Max RH (%) Min RH (%) Wet Bulb (°F) WetB Hrs <28F (hrs) Bat Volt Min Day (V)
10/26/20 40.6 1418 16.5 0212 0.00 97.70 7.5 28.9 0020 NE | 47 75 14 19.2 23.9 13.5
10/25/20 42.0 1002 17.5 2348 0.00 97.70 9.5 29.8 2353 ENE | 72 73 22 25.5 9.9 13.4
10/24/20 56.5 1303 39.5 2340 0.00 97.70 9.3 20.8 0845 W | 263 48 20 34.1 0.0 13.2
10/23/20 60.4 1302 33.8 0200 0.00 97.70 5.7 17.4 1716 SW | 224 82 24 37.0 0.0 13.2
10/22/20 60.1 1426 35.3 2335 0.00 97.70 2.9 12.6 0107 SW | 220 75 24 36.3 0.0 13.2
10/21/20 64.7 1348 48.8 0001 0.00 97.70 7.4 18.9 1453 WSW | 240 40 17 39.6 0.0 13.1
10/20/20 68.2 1350 44.2 0703 0.00 97.70 3.3 13.2 1714 WNW | 302 47 14 40.4 0.0 13.2
10/19/20 68.9 1436 48.9 0655 0.00 97.70 4.8 16.3 1114 WNW | 300 44 20 40.7 0.0 13.1
10/18/20 66.0 1316 50.2 2320 0.00 97.70 7.3 20.7 0635 WSW | 256 45 16 41.8 0.0 13.1
10/17/20 71.2 1401 48.8 0004 0.00 97.70 5.2 17.7 1231 SSW | 212 34 13 41.1 0.0 13.1
10/16/20 67.4 1419 41.1 0707 0.00 97.70 3.0 11.0 1104 E | 97 51 19 38.5 0.0 13.2
10/15/20 64.6 1326 45.2 2323 0.00 97.70 3.1 12.8 1505 ENE | 70 49 29 40.8 0.0 13.2
10/14/20 69.1 1432 48.7 0050 0.00 97.70 3.1 15.3 1604 NNE | 20 54 22 43.2 0.0 13.1
10/13/20 68.7 1312 49.8 0001 0.00 97.70 6.4 18.8 1214 SW | 223 52 22 41.8 0.0 13.1
10/12/20 66.6 1423 46.8 0004 0.00 97.70 6.2 16.2 0425 WSW | 256 59 17 39.9 0.0 13.1
10/11/20 62.2 1437 38.0 0204 0.00 97.70 5.7 27.1 0013 SW | 233 93 25 40.0 0.0 13.2
10/10/20 50.3 1150 38.6 2318 0.00 97.70 12.8 41.3 1520 ESE | 123 97 30 38.2 0.0 13.2
10/9/20 66.5 1350 44.7 1914 0.00 97.70 4.9 26.2 2350 SW | 218 52 20 38.0 0.0 13.1
10/8/20 61.2 1347 48.3 2312 0.00 97.70 6.0 17.8 1748 WSW | 252 33 13 37.6 0.0 13.1
10/7/20 71.6 1354 51.1 2047 0.00 97.70 6.6 17.2 2014 WSW | 248 32 8 39.8 0.0 13.1
10/6/20 73.1 1408 50.7 0718 0.00 97.70 2.6 14.8 1441 SW | 223 33 7 41.0 0.0 13.1
10/5/20 71.6 1442 53.6 0554 0.00 97.70 7.7 25.2 0106 SSW | 209 32 11 41.1 0.0 13.1
10/4/20 69.7 1429 54.1 0637 0.00 97.70 7.8 27.8 2154 SW | 229 28 13 41.3 0.0 13.1
10/3/20 74.3 1432 56.0 0516 0.00 97.70 2.9 14.7 1559 WSW | 242 36 11 42.8 0.0 13.0
10/2/20 77.1 1354 56.5 0001 0.00 97.70 1.8 10.7 1419 ENE | 71 32 9 43.3 0.0 13.0
10/1/20 74.7 1410 53.2 0654 0.00 97.70 2.9 15.9 1346 SE | 137 32 12 43.9 0.0 13.0
9/30/20 73.5 1459 54.2 0318 0.00 97.70 3.3 10.7 1341 SSE | 164 40 23 45.1 0.0 13.1
9/29/20 71.3 1416 49.1 0042 0.00 97.70 4.8 20.1 1417 SW | 221 39 20 43.5 0.0 13.1
9/28/20 64.9 1600 44.6 0656 0.00 97.70 5.9 20.9 0447 ENE | 66 50 21 39.8 0.0 13.1
9/27/20 61.6 1618 44.8 0646 0.00 97.70 5.8 19.2 1412 E | 101 67 33 42.1 0.0 13.2
Max 77.1 - 56.5 - 0.00 - 12.8 41.3 - - 97 33 45.1 23.9 13.5
Avg - - - - - - 5.5 - - - - - 39.2 - -
Min 40.6 - 16.5 - 0.00 - 1.8 10.7 - - 28 7 19.2 0.0 13.0
Calm: 0.0%
Calm: 0.0%